PDT3828 KSJC-KLAX

Flight info

Callsign PDT3828
Flight time 1h 14m
Altitude 23000
Route SPTNS1 VLREE EBAYE VTU SADDE8
Aircraft DH8D/M-SDE2E3FGRY/H

Departure

Time 2026-05-05 02:08
Airport Norman Y. Mineta San Jose International Airport (KSJC)

Arrival

Time 2026-05-05 03:23
Airport Los Angeles International Airport (KLAX)
Time Latitude Longitude Altitude Speed Heading
2026-05-05 01:24 37.36855 -121.92937 52 ft 0 kts 47°
2026-05-05 01:50 37.36850 -121.92943 52 ft 2 kts 47°
2026-05-05 01:51 37.36840 -121.92956 52 ft 2 kts 47°
2026-05-05 01:51 37.36830 -121.92970 53 ft 2 kts 47°
2026-05-05 01:51 37.36821 -121.92984 53 ft 2 kts 62°
2026-05-05 01:51 37.36818 -121.93002 53 ft 2 kts 96°
2026-05-05 01:52 37.36823 -121.93019 53 ft 2 kts 128°
2026-05-05 01:52 37.36828 -121.93025 53 ft 0 kts 140°
2026-05-05 02:00 37.36823 -121.93020 53 ft 2 kts 139°
2026-05-05 02:00 37.36794 -121.92988 53 ft 11 kts 139°
2026-05-05 02:00 37.36733 -121.92919 54 ft 13 kts 138°
2026-05-05 02:01 37.36660 -121.92838 55 ft 14 kts 139°
2026-05-05 02:01 37.36586 -121.92759 56 ft 13 kts 140°
2026-05-05 02:01 37.36523 -121.92691 57 ft 12 kts 138°
2026-05-05 02:01 37.36462 -121.92622 58 ft 16 kts 138°
2026-05-05 02:02 37.36363 -121.92513 60 ft 16 kts 139°
2026-05-05 02:02 37.36277 -121.92423 61 ft 15 kts 140°
2026-05-05 02:02 37.36209 -121.92347 62 ft 14 kts 143°
2026-05-05 02:02 37.36110 -121.92325 63 ft 15 kts 156°
2026-05-05 02:03 37.36026 -121.92242 64 ft 16 kts 139°
2026-05-05 02:03 37.35941 -121.92145 65 ft 19 kts 139°
2026-05-05 02:03 37.35834 -121.92032 66 ft 19 kts 138°
2026-05-05 02:03 37.35737 -121.91924 67 ft 17 kts 138°
2026-05-05 02:04 37.35651 -121.91830 68 ft 16 kts 139°
2026-05-05 02:04 37.35571 -121.91743 69 ft 15 kts 139°
2026-05-05 02:04 37.35493 -121.91657 69 ft 14 kts 139°
2026-05-05 02:04 37.35422 -121.91580 70 ft 13 kts 139°
2026-05-05 02:05 37.35354 -121.91505 70 ft 13 kts 139°
2026-05-05 02:05 37.35302 -121.91466 71 ft 0 kts 205°
2026-05-05 02:07 37.35297 -121.91470 70 ft 5 kts 212°
2026-05-05 02:07 37.35263 -121.91514 70 ft 8 kts 239°
2026-05-05 02:07 37.35273 -121.91575 70 ft 6 kts 310°
2026-05-05 02:08 37.35348 -121.91660 70 ft 34 kts 319°
2026-05-05 02:08 37.35739 -121.92089 66 ft 123 kts 319°
2026-05-05 02:08 37.36543 -121.92961 375 ft 157 kts 319°
2026-05-05 02:08 37.37408 -121.93868 1028 ft 173 kts 321°
2026-05-05 02:09 37.38306 -121.94750 1723 ft 178 kts 321°
2026-05-05 02:09 37.39161 -121.95713 2816 ft 164 kts 315°
2026-05-05 02:09 37.39955 -121.96729 3572 ft 172 kts 313°
2026-05-05 02:09 37.40804 -121.97656 4299 ft 176 kts 330°
2026-05-05 02:10 37.42043 -121.97918 4709 ft 198 kts 17°
2026-05-05 02:10 37.43079 -121.96875 4860 ft 193 kts 66°
2026-05-05 02:10 37.43128 -121.95269 4921 ft 188 kts 115°
2026-05-05 02:10 37.42370 -121.94023 4964 ft 190 kts 134°
2026-05-05 02:11 37.41444 -121.92786 4977 ft 198 kts 132°
2026-05-05 02:11 37.40551 -121.91506 5038 ft 201 kts 130°
2026-05-05 02:11 37.39670 -121.90171 5178 ft 199 kts 130°
2026-05-05 02:11 37.38801 -121.88804 5264 ft 200 kts 129°
2026-05-05 02:12 37.37965 -121.87455 5398 ft 203 kts 128°
2026-05-05 02:12 37.36312 -121.84728 6785 ft 192 kts 126°
2026-05-05 02:12 37.35552 -121.83450 7338 ft 195 kts 126°
2026-05-05 02:13 37.34738 -121.82075 7858 ft 198 kts 125°
2026-05-05 02:13 37.33915 -121.80671 8399 ft 202 kts 124°
2026-05-05 02:13 37.33092 -121.79264 8973 ft 203 kts 125°
2026-05-05 02:13 37.32174 -121.77981 9498 ft 208 kts 135°
2026-05-05 02:14 37.31091 -121.76764 10075 ft 212 kts 136°
2026-05-05 02:14 37.30024 -121.75575 10704 ft 211 kts 136°
2026-05-05 02:14 37.28974 -121.74399 11255 ft 212 kts 136°
2026-05-05 02:14 37.27860 -121.73148 11813 ft 215 kts 135°
2026-05-05 02:15 37.26746 -121.71892 12377 ft 216 kts 135°
2026-05-05 02:15 37.25650 -121.70657 12907 ft 216 kts 135°
2026-05-05 02:15 37.24531 -121.69391 13385 ft 220 kts 134°
2026-05-05 02:15 37.23396 -121.68106 13835 ft 225 kts 134°
2026-05-05 02:16 37.22245 -121.66804 14224 ft 229 kts 134°
2026-05-05 02:16 37.21065 -121.65469 14676 ft 231 kts 134°
2026-05-05 02:16 37.19877 -121.64123 15170 ft 231 kts 133°
2026-05-05 02:16 37.18766 -121.62866 15599 ft 231 kts 133°
2026-05-05 02:17 37.17537 -121.61475 16025 ft 234 kts 133°
2026-05-05 02:17 37.16340 -121.60122 16484 ft 233 kts 133°
2026-05-05 02:17 37.15153 -121.58780 16888 ft 235 kts 132°
2026-05-05 02:17 37.13941 -121.57410 17310 ft 236 kts 133°
2026-05-05 02:18 37.12732 -121.56046 17748 ft 236 kts 132°
2026-05-05 02:18 37.11562 -121.54726 18115 ft 236 kts 132°
2026-05-05 02:18 37.10324 -121.53328 18475 ft 239 kts 131°
2026-05-05 02:18 37.09148 -121.52003 18862 ft 238 kts 131°
2026-05-05 02:19 37.07945 -121.50648 19222 ft 238 kts 131°
2026-05-05 02:19 37.06677 -121.49217 19514 ft 242 kts 131°
2026-05-05 02:19 37.05416 -121.47823 19900 ft 241 kts 132°
2026-05-05 02:19 37.04223 -121.46551 20214 ft 241 kts 132°
2026-05-05 02:20 37.02899 -121.45142 20502 ft 244 kts 131°
2026-05-05 02:20 37.01625 -121.43787 20847 ft 244 kts 131°
2026-05-05 02:20 37.00354 -121.42435 21139 ft 243 kts 131°
2026-05-05 02:20 36.99045 -121.41038 21375 ft 247 kts 131°
2026-05-05 02:21 36.97748 -121.39657 21678 ft 246 kts 131°
2026-05-05 02:21 36.96563 -121.38397 21935 ft 245 kts 130°
2026-05-05 02:21 36.95229 -121.36975 22150 ft 247 kts 130°
2026-05-05 02:21 36.93935 -121.35597 22422 ft 248 kts 130°
2026-05-05 02:22 36.92822 -121.34412 22621 ft 249 kts 131°
2026-05-05 02:22 36.89856 -121.31255 23126 ft 251 kts 131°
2026-05-05 02:22 36.88965 -121.30310 23311 ft 249 kts 130°
2026-05-05 02:23 36.88319 -121.29624 23416 ft 250 kts 130°
2026-05-05 02:23 36.86993 -121.28213 23597 ft 252 kts 130°
2026-05-05 02:23 36.85675 -121.26809 23392 ft 254 kts 131°
2026-05-05 02:23 36.84336 -121.25382 23218 ft 254 kts 131°
2026-05-05 02:24 36.82980 -121.23940 23069 ft 257 kts 131°
2026-05-05 02:24 36.81587 -121.22462 23031 ft 265 kts 131°
2026-05-05 02:24 36.80174 -121.20963 23018 ft 272 kts 132°
2026-05-05 02:24 36.78714 -121.19415 23003 ft 279 kts 133°
2026-05-05 02:25 36.77258 -121.17876 22998 ft 281 kts 133°
2026-05-05 02:25 36.75763 -121.16295 22999 ft 286 kts 133°
2026-05-05 02:25 36.74243 -121.14687 22989 ft 291 kts 133°
2026-05-05 02:25 36.72697 -121.13053 22990 ft 294 kts 133°
2026-05-05 02:26 36.71144 -121.11412 22985 ft 298 kts 133°
2026-05-05 02:26 36.69539 -121.09718 22984 ft 301 kts 133°
2026-05-05 02:26 36.67952 -121.08044 22978 ft 301 kts 134°
2026-05-05 02:26 36.66363 -121.06368 22968 ft 304 kts 134°
2026-05-05 02:27 36.64754 -121.04673 22964 ft 304 kts 134°
2026-05-05 02:27 36.63139 -121.02972 22971 ft 310 kts 134°
2026-05-05 02:27 36.61469 -121.01213 22977 ft 314 kts 134°
2026-05-05 02:27 36.59829 -120.99503 22974 ft 314 kts 135°
2026-05-05 02:28 36.58137 -120.97778 22983 ft 319 kts 136°
2026-05-05 02:28 36.56399 -120.96014 22976 ft 322 kts 136°
2026-05-05 02:28 36.54702 -120.94298 22980 ft 322 kts 136°
2026-05-05 02:28 36.52935 -120.92507 22981 ft 326 kts 136°
2026-05-05 02:29 36.51176 -120.90732 22973 ft 327 kts 136°
2026-05-05 02:29 36.49414 -120.88959 22973 ft 327 kts 136°
2026-05-05 02:29 36.47652 -120.87183 22982 ft 329 kts 137°
2026-05-05 02:29 36.45889 -120.85405 22978 ft 328 kts 137°
2026-05-05 02:30 36.44100 -120.83600 22974 ft 329 kts 137°
2026-05-05 02:30 36.42327 -120.81812 22979 ft 330 kts 137°
2026-05-05 02:30 36.40549 -120.80019 22979 ft 329 kts 137°
2026-05-05 02:30 36.38771 -120.78222 22976 ft 331 kts 137°
2026-05-05 02:31 36.36992 -120.76425 22984 ft 333 kts 137°
2026-05-05 02:31 36.35231 -120.74648 22976 ft 332 kts 137°
2026-05-05 02:31 36.33437 -120.72835 22978 ft 334 kts 137°
2026-05-05 02:31 36.31656 -120.71037 22973 ft 333 kts 138°
2026-05-05 02:32 36.29845 -120.69210 22976 ft 332 kts 138°
2026-05-05 02:32 36.28059 -120.67403 22981 ft 334 kts 138°
2026-05-05 02:32 36.26281 -120.65608 22977 ft 331 kts 138°
2026-05-05 02:32 36.24506 -120.63818 22985 ft 332 kts 138°
2026-05-05 02:33 36.22715 -120.62013 22984 ft 334 kts 139°
2026-05-05 02:33 36.20956 -120.60249 22975 ft 330 kts 139°
2026-05-05 02:33 36.19147 -120.58427 22984 ft 333 kts 139°
2026-05-05 02:33 36.17363 -120.56634 22982 ft 333 kts 139°
2026-05-05 02:34 36.15573 -120.54840 22981 ft 333 kts 139°
2026-05-05 02:34 36.13760 -120.53020 22979 ft 335 kts 139°
2026-05-05 02:34 36.11965 -120.51224 22980 ft 334 kts 139°
2026-05-05 02:34 36.10153 -120.49411 22980 ft 334 kts 139°
2026-05-05 02:35 36.08363 -120.47617 22985 ft 336 kts 139°
2026-05-05 02:35 36.06535 -120.45788 22988 ft 335 kts 140°
2026-05-05 02:35 36.04727 -120.43977 22992 ft 337 kts 140°
2026-05-05 02:35 36.02910 -120.42158 22992 ft 338 kts 140°
2026-05-05 02:36 36.01094 -120.40344 22989 ft 338 kts 140°
2026-05-05 02:36 35.99257 -120.38508 22993 ft 340 kts 140°
2026-05-05 02:36 35.97412 -120.36671 22988 ft 338 kts 140°
2026-05-05 02:36 35.95602 -120.34874 22990 ft 338 kts 141°
2026-05-05 02:37 35.93773 -120.33061 22986 ft 336 kts 141°
2026-05-05 02:37 35.91981 -120.31282 22983 ft 333 kts 141°
2026-05-05 02:37 35.90163 -120.29469 22990 ft 333 kts 140°
2026-05-05 02:37 35.88380 -120.27686 22988 ft 333 kts 140°
2026-05-05 02:38 35.86740 -120.26101 22981 ft 333 kts 144°
2026-05-05 02:38 35.84661 -120.24525 22992 ft 334 kts 149°
2026-05-05 02:38 35.82626 -120.23109 22992 ft 337 kts 149°
2026-05-05 02:38 35.80600 -120.21690 22997 ft 338 kts 149°
2026-05-05 02:39 35.78561 -120.20258 22996 ft 339 kts 149°
2026-05-05 02:39 35.76512 -120.18819 22996 ft 340 kts 149°
2026-05-05 02:39 35.74472 -120.17385 22997 ft 338 kts 149°
2026-05-05 02:39 35.72417 -120.15936 22997 ft 339 kts 149°
2026-05-05 02:40 35.70380 -120.14504 22991 ft 339 kts 149°
2026-05-05 02:40 35.68353 -120.13077 22993 ft 338 kts 149°
2026-05-05 02:40 35.66309 -120.11634 22998 ft 341 kts 149°
2026-05-05 02:40 35.64263 -120.10194 22994 ft 340 kts 149°
2026-05-05 02:41 35.62203 -120.08745 22998 ft 341 kts 149°
2026-05-05 02:41 35.60130 -120.07287 22998 ft 343 kts 149°
2026-05-05 02:41 35.58058 -120.05832 22992 ft 344 kts 150°
2026-05-05 02:41 35.55978 -120.04369 23004 ft 346 kts 150°
2026-05-05 02:42 35.53895 -120.02907 23002 ft 347 kts 150°
2026-05-05 02:42 35.51799 -120.01439 22999 ft 348 kts 150°
2026-05-05 02:42 35.49694 -119.99966 22997 ft 350 kts 150°
2026-05-05 02:42 35.47582 -119.98492 22993 ft 349 kts 151°
2026-05-05 02:43 35.45448 -119.97004 22994 ft 350 kts 152°
2026-05-05 02:43 35.43335 -119.95533 22997 ft 350 kts 152°
2026-05-05 02:43 35.41231 -119.94070 22993 ft 347 kts 152°
2026-05-05 02:43 35.39123 -119.92600 22989 ft 348 kts 152°
2026-05-05 02:44 35.37049 -119.91155 22984 ft 347 kts 153°
2026-05-05 02:44 35.34964 -119.89700 22982 ft 344 kts 153°
2026-05-05 02:44 35.32863 -119.88235 22981 ft 346 kts 153°
2026-05-05 02:44 35.30779 -119.86785 22982 ft 346 kts 154°
2026-05-05 02:45 35.28687 -119.85331 22984 ft 346 kts 154°
2026-05-05 02:45 35.26590 -119.83875 22982 ft 347 kts 154°
2026-05-05 02:45 35.24490 -119.82416 22980 ft 345 kts 154°
2026-05-05 02:45 35.22400 -119.80964 22976 ft 346 kts 154°
2026-05-05 02:46 35.20338 -119.79532 22973 ft 345 kts 154°
2026-05-05 02:46 35.18264 -119.78091 22977 ft 343 kts 154°
2026-05-05 02:46 35.16183 -119.76646 22979 ft 344 kts 154°
2026-05-05 02:46 35.14120 -119.75214 22974 ft 341 kts 154°
2026-05-05 02:47 35.12056 -119.73780 22980 ft 341 kts 154°
2026-05-05 02:47 35.09991 -119.72347 22981 ft 341 kts 154°
2026-05-05 02:47 35.07951 -119.70931 22976 ft 338 kts 154°
2026-05-05 02:47 35.05902 -119.69508 22984 ft 339 kts 155°
2026-05-05 02:48 35.03872 -119.68105 22982 ft 339 kts 155°
2026-05-05 02:48 35.01824 -119.66692 22974 ft 336 kts 155°
2026-05-05 02:48 34.99786 -119.65292 22975 ft 338 kts 155°
2026-05-05 02:48 34.97765 -119.63903 22971 ft 336 kts 155°
2026-05-05 02:49 34.95723 -119.62497 22973 ft 337 kts 155°
2026-05-05 02:49 34.93679 -119.61090 22975 ft 338 kts 155°
2026-05-05 02:49 34.91651 -119.59695 22972 ft 337 kts 156°
2026-05-05 02:49 34.89627 -119.58300 22973 ft 338 kts 155°
2026-05-05 02:50 34.87593 -119.56901 22968 ft 339 kts 155°
2026-05-05 02:50 34.85530 -119.55483 22965 ft 337 kts 155°
2026-05-05 02:50 34.83496 -119.54085 22971 ft 339 kts 155°
2026-05-05 02:50 34.81451 -119.52681 22965 ft 339 kts 155°
2026-05-05 02:51 34.79414 -119.51283 22963 ft 337 kts 155°
2026-05-05 02:51 34.77349 -119.49867 22966 ft 338 kts 155°
2026-05-05 02:51 34.75320 -119.48476 22964 ft 338 kts 155°
2026-05-05 02:51 34.73286 -119.47085 22963 ft 337 kts 156°
2026-05-05 02:52 34.71259 -119.45697 22965 ft 338 kts 156°
2026-05-05 02:52 34.69216 -119.44299 22960 ft 336 kts 156°
2026-05-05 02:52 34.67189 -119.42913 22971 ft 337 kts 155°
2026-05-05 02:52 34.65139 -119.41496 22970 ft 338 kts 155°
2026-05-05 02:53 34.63101 -119.40065 22971 ft 337 kts 155°
2026-05-05 02:53 34.61069 -119.38660 22970 ft 339 kts 155°
2026-05-05 02:53 34.59023 -119.37251 22963 ft 338 kts 156°
2026-05-05 02:53 34.57008 -119.35865 22966 ft 339 kts 156°
2026-05-05 02:54 34.54925 -119.34438 22964 ft 340 kts 156°
2026-05-05 02:54 34.53146 -119.33221 22972 ft 338 kts 156°
2026-05-05 02:54 34.50938 -119.31710 22970 ft 338 kts 156°
2026-05-05 02:54 34.48866 -119.30297 22983 ft 340 kts 156°
2026-05-05 02:55 34.46822 -119.28905 22984 ft 338 kts 156°
2026-05-05 02:55 34.44790 -119.27521 22985 ft 339 kts 156°
2026-05-05 02:55 34.42754 -119.26137 22994 ft 338 kts 156°
2026-05-05 02:55 34.40739 -119.24765 22995 ft 335 kts 156°
2026-05-05 02:56 34.38683 -119.23369 23005 ft 337 kts 156°
2026-05-05 02:56 34.36635 -119.21981 23000 ft 338 kts 157°
2026-05-05 02:56 34.34611 -119.20608 23007 ft 338 kts 156°
2026-05-05 02:56 34.32541 -119.19205 23000 ft 340 kts 156°
2026-05-05 02:57 34.30507 -119.17828 22961 ft 338 kts 156°
2026-05-05 02:57 34.28478 -119.16449 22647 ft 335 kts 156°
2026-05-05 02:57 34.26440 -119.15069 22147 ft 339 kts 156°
2026-05-05 02:57 34.24416 -119.13699 21594 ft 340 kts 156°
2026-05-05 02:58 34.22378 -119.12322 21037 ft 340 kts 156°
2026-05-05 02:58 34.20348 -119.10941 20465 ft 331 kts 155°
2026-05-05 02:58 34.18387 -119.09602 19921 ft 314 kts 155°
2026-05-05 02:58 34.16542 -119.08345 19418 ft 303 kts 155°
2026-05-05 02:59 34.14748 -119.07127 18919 ft 295 kts 155°
2026-05-05 02:59 34.13011 -119.05944 18380 ft 286 kts 153°
2026-05-05 02:59 34.11536 -119.04318 17851 ft 289 kts 126°
2026-05-05 02:59 34.10767 -119.02147 17404 ft 287 kts 111°
2026-05-05 03:00 34.10145 -118.99857 16928 ft 293 kts 111°
2026-05-05 03:00 34.09499 -118.97457 16430 ft 303 kts 110°
2026-05-05 03:00 34.08855 -118.95053 15914 ft 310 kts 110°
2026-05-05 03:00 34.08193 -118.92574 15384 ft 316 kts 110°
2026-05-05 03:01 34.07513 -118.90031 14853 ft 322 kts 109°
2026-05-05 03:01 34.06827 -118.87466 14306 ft 322 kts 109°
2026-05-05 03:01 34.06150 -118.84925 13764 ft 321 kts 109°
2026-05-05 03:01 34.05467 -118.82369 13224 ft 321 kts 109°
2026-05-05 03:02 34.04813 -118.79920 12674 ft 313 kts 109°
2026-05-05 03:02 34.04165 -118.77483 12202 ft 308 kts 109°
2026-05-05 03:02 34.03712 -118.74995 11677 ft 306 kts 99°
2026-05-05 03:02 34.03480 -118.72523 11169 ft 299 kts 97°
2026-05-05 03:03 34.03262 -118.70046 10679 ft 295 kts 97°
2026-05-05 03:03 34.03048 -118.67627 10208 ft 292 kts 97°
2026-05-05 03:03 34.02839 -118.65280 10026 ft 276 kts 97°
2026-05-05 03:03 34.02642 -118.63070 9957 ft 261 kts 98°
2026-05-05 03:04 34.02449 -118.60937 9702 ft 260 kts 98°
2026-05-05 03:04 34.02252 -118.58842 9247 ft 266 kts 98°
2026-05-05 03:04 34.02041 -118.56602 8762 ft 274 kts 97°
2026-05-05 03:04 34.01824 -118.54310 8283 ft 279 kts 98°
2026-05-05 03:05 34.01611 -118.52061 7811 ft 277 kts 97°
2026-05-05 03:05 34.01402 -118.49782 7303 ft 270 kts 97°
2026-05-05 03:05 34.01199 -118.47578 6805 ft 265 kts 98°
2026-05-05 03:05 34.01006 -118.45512 6331 ft 259 kts 97°
2026-05-05 03:06 34.00933 -118.43452 6076 ft 244 kts 87°
2026-05-05 03:06 34.01137 -118.41493 5993 ft 227 kts 82°
2026-05-05 03:06 34.01349 -118.39777 5959 ft 206 kts 82°
2026-05-05 03:06 34.01543 -118.38167 5966 ft 201 kts 83°
2026-05-05 03:07 34.01739 -118.36478 5968 ft 209 kts 83°
2026-05-05 03:07 34.01928 -118.34808 5967 ft 212 kts 83°
2026-05-05 03:07 34.02093 -118.33352 5963 ft 211 kts 83°
2026-05-05 03:07 34.02255 -118.31960 5957 ft 200 kts 83°
2026-05-05 03:08 34.02513 -118.29806 5958 ft 192 kts 83°
2026-05-05 03:08 34.02689 -118.28359 5967 ft 195 kts 83°
2026-05-05 03:08 34.02888 -118.26688 5970 ft 202 kts 83°
2026-05-05 03:08 34.03088 -118.24974 5971 ft 209 kts 83°
2026-05-05 03:09 34.03283 -118.23293 5968 ft 214 kts 83°
2026-05-05 03:09 34.03487 -118.21527 5966 ft 219 kts 83°
2026-05-05 03:09 34.03698 -118.19745 5957 ft 212 kts 83°
2026-05-05 03:09 34.03899 -118.18059 5945 ft 202 kts 83°
2026-05-05 03:10 34.04097 -118.16466 5943 ft 191 kts 83°
2026-05-05 03:10 34.04225 -118.15448 5945 ft 183 kts 83°
2026-05-05 03:10 34.04460 -118.13528 5940 ft 172 kts 83°
2026-05-05 03:10 34.04623 -118.12112 5957 ft 178 kts 83°
2026-05-05 03:11 34.04788 -118.10613 5969 ft 184 kts 83°
2026-05-05 03:11 34.04956 -118.09066 5971 ft 192 kts 83°
2026-05-05 03:11 34.05122 -118.07525 5968 ft 197 kts 83°
2026-05-05 03:11 34.05302 -118.05853 5970 ft 204 kts 83°
2026-05-05 03:12 34.05458 -118.04121 5969 ft 212 kts 91°
2026-05-05 03:12 34.05108 -118.02550 5970 ft 210 kts 121°
2026-05-05 03:12 34.04134 -118.01238 5966 ft 209 kts 151°
2026-05-05 03:12 34.02766 -118.00656 5977 ft 207 kts 169°
2026-05-05 03:13 34.01402 -118.00240 5969 ft 207 kts 169°
2026-05-05 03:13 33.99991 -118.00092 5952 ft 203 kts 195°
2026-05-05 03:13 33.98917 -118.01026 5955 ft 193 kts 241°
2026-05-05 03:13 33.98718 -118.02500 5951 ft 174 kts 274°
2026-05-05 03:14 33.98772 -118.03866 5813 ft 154 kts 266°
2026-05-05 03:14 33.98684 -118.05113 5588 ft 149 kts 263°
2026-05-05 03:14 33.98594 -118.06322 5535 ft 146 kts 264°
2026-05-05 03:14 33.98495 -118.07523 5446 ft 143 kts 263°
2026-05-05 03:15 33.98383 -118.08704 5249 ft 140 kts 262°
2026-05-05 03:15 33.98273 -118.09819 5000 ft 139 kts 263°
2026-05-05 03:15 33.98160 -118.10980 4798 ft 139 kts 263°
2026-05-05 03:15 33.98047 -118.12126 4611 ft 138 kts 263°
2026-05-05 03:16 33.97938 -118.13248 4455 ft 138 kts 263°
2026-05-05 03:16 33.97823 -118.14399 4295 ft 142 kts 263°
2026-05-05 03:16 33.97705 -118.15596 4144 ft 146 kts 263°
2026-05-05 03:16 33.97584 -118.16800 3977 ft 151 kts 262°
2026-05-05 03:17 33.97458 -118.18023 3718 ft 142 kts 262°
2026-05-05 03:17 33.97337 -118.19159 3405 ft 131 kts 262°
2026-05-05 03:17 33.97237 -118.20186 3191 ft 127 kts 264°
2026-05-05 03:17 33.97144 -118.21257 3140 ft 132 kts 264°
2026-05-05 03:18 33.97030 -118.22406 3056 ft 142 kts 263°
2026-05-05 03:18 33.96911 -118.23561 2896 ft 143 kts 262°
2026-05-05 03:18 33.96786 -118.24719 2632 ft 137 kts 262°
2026-05-05 03:18 33.96671 -118.25826 2392 ft 130 kts 263°
2026-05-05 03:19 33.96470 -118.27930 2138 ft 134 kts 263°
2026-05-05 03:19 33.96351 -118.29078 1973 ft 138 kts 262°
2026-05-05 03:19 33.96234 -118.30200 1782 ft 139 kts 262°
2026-05-05 03:20 33.96120 -118.31335 1583 ft 136 kts 262°
2026-05-05 03:20 33.96007 -118.32427 1410 ft 127 kts 262°
2026-05-05 03:20 33.95906 -118.33438 1253 ft 121 kts 262°
2026-05-05 03:20 33.95810 -118.34399 1094 ft 119 kts 262°
2026-05-05 03:21 33.95712 -118.35377 929 ft 116 kts 262°
2026-05-05 03:21 33.95619 -118.36313 772 ft 112 kts 263°
2026-05-05 03:21 33.95533 -118.37202 662 ft 112 kts 261°
2026-05-05 03:21 33.95418 -118.38146 480 ft 113 kts 261°
2026-05-05 03:22 33.95332 -118.39075 357 ft 111 kts 261°
2026-05-05 03:22 33.95269 -118.39645 274 ft 110 kts 260°
2026-05-05 03:22 33.95146 -118.40784 126 ft 94 kts 261°
2026-05-05 03:22 33.95081 -118.41428 126 ft 59 kts 264°
2026-05-05 03:23 33.95041 -118.41792 124 ft 38 kts 263°
2026-05-05 03:23 33.95008 -118.42045 122 ft 25 kts 251°
2026-05-05 03:23 33.94937 -118.42200 121 ft 16 kts 231°
2026-05-05 03:23 33.94869 -118.42275 120 ft 11 kts 206°
2026-05-05 03:24 33.94788 -118.42281 119 ft 14 kts 175°
2026-05-05 03:24 33.94701 -118.42270 119 ft 0 kts 173°
2026-05-05 03:25 33.94688 -118.42256 119 ft 6 kts 116°
2026-05-05 03:26 33.94689 -118.42168 119 ft 11 kts 81°
2026-05-05 03:26 33.94701 -118.42077 121 ft 11 kts 82°
2026-05-05 03:26 33.94711 -118.41988 121 ft 11 kts 83°
2026-05-05 03:26 33.94720 -118.41881 122 ft 13 kts 84°
2026-05-05 03:27 33.94732 -118.41771 123 ft 13 kts 83°
2026-05-05 03:27 33.94744 -118.41656 124 ft 18 kts 84°
2026-05-05 03:27 33.94760 -118.41494 124 ft 17 kts 82°
2026-05-05 03:27 33.94784 -118.41354 125 ft 16 kts 77°
2026-05-05 03:28 33.94801 -118.41232 125 ft 15 kts 82°
2026-05-05 03:28 33.94814 -118.41110 125 ft 15 kts 83°
2026-05-05 03:28 33.94828 -118.40972 125 ft 16 kts 82°
2026-05-05 03:28 33.94777 -118.40875 125 ft 13 kts 137°
2026-05-05 03:29 33.94765 -118.40782 125 ft 13 kts 86°
2026-05-05 03:29 33.94717 -118.40741 124 ft 4 kts 186°
2026-05-05 03:29 33.94708 -118.40743 124 ft 0 kts 189°